GFSFLT1_925_temp_084.txt.gz
Temp
21 17 17 16 14 13 12 11 12 12 12 12 12 12 12 12 13 13 14 16 16 15 17 17 15 15 14 15 15 15 16 16
21 17 15 15 14 12 12 12 12 12 12 12 12 12 11 12 13 14 15 15 13 15 15 14 15 15 15 15 15 15 15 15
21 17 15 14 15 13 12 12 11 12 12 12 12 12 12 13 13 14 13 12 13 15 15 16 17 14 14 14 15 15 15 14
21 19 16 15 15 14 12 11 12 12 12 12 12 12 12 12 13 13 13 14 14 15 15 15 14 16 15 15 14 15 16 15
22 20 17 16 15 14 13 12 12 12 12 12 12 12 12 12 13 13 13 13 14 15 15 15 15 15 16 15 15 15 15 16
24 21 18 17 16 15 13 12 12 12 12 12 12 12 13 13 13 13 14 14 14 15 15 15 15 15 15 15 15 14 15 15
25 22 18 18 16 14 14 13 12 12 12 12 12 12 12 13 13 14 15 15 15 15 15 15 15 15 15 15 14 14 14 15
25 23 20 18 16 14 14 13 13 12 12 12 13 13 13 13 13 14 15 16 17 16 15 15 15 15 15 14 14 14 14 14
25 24 22 18 16 15 14 13 13 13 12 13 13 14 13 13 14 14 15 16 16 16 15 15 15 15 14 14 15 15 15 14
25 24 22 19 17 16 14 14 14 14 13 14 14 14 15 15 15 14 15 16 16 15 15 15 15 15 15 15 15 15 15 14
26 25 22 20 18 16 14 14 15 16 14 14 15 15 15 15 15 15 16 16 15 16 15 15 15 15 15 15 15 15 15 15
25 25 23 21 19 17 15 16 17 17 16 15 15 15 15 15 15 15 15 15 15 15 15 15 15 15 16 15 15 15 15 14
25 24 24 22 20 19 17 17 18 17 16 16 16 15 15 15 15 15 15 15 15 15 15 16 15 16 15 15 15 14 13 12
25 24 23 23 21 20 19 18 17 17 16 16 15 15 15 15 15 15 15 15 16 16 16 15 15 15 15 15 15 14 13 14
24 24 23 23 22 21 20 19 18 17 16 16 15 15 15 15 15 15 15 15 15 16 15 15 15 15 15 15 14 12 12 11
24 24 24 23 22 21 20 20 18 17 17 16 16 15 15 15 15 15 14 15 15 15 15 15 15 14 14 14 13 12 11 11
25 24 24 23 22 22 21 20 19 18 17 17 17 16 16 16 16 16 15 14 15 15 14 15 14 14 13 12 12 12 11 10
23 24 24 24 22 21 21 20 19 18 18 17 17 17 17 17 16 16 16 14 14 13 14 14 13 12 12 11 11 10 9 8
22 23 24 24 23 21 21 20 19 18 18 18 17 17 17 17 17 17 15 12 11 11 11 11 10 9 9 8 8 7 6 4

GFSFLT1_925_temp_087.txt.gz
Temp
26 24 22 21 19 16 13 12 12 13 12 12 12 12 12 11 11 11 12 11 12 13 14 14 14 15 15 15 16 17 17 18
26 23 21 20 19 15 13 12 12 12 12 12 11 11 11 11 12 12 12 12 13 14 15 15 15 14 15 16 16 16 16 17
26 23 20 19 18 16 13 12 12 12 12 12 12 11 11 11 11 12 13 13 14 15 15 15 15 16 16 15 16 16 17 16
26 24 20 17 18 16 14 13 13 13 12 12 11 11 11 11 11 13 14 14 15 15 16 15 16 15 15 15 16 16 17 16
27 24 21 18 18 17 15 13 13 13 12 12 12 12 12 12 12 13 13 14 14 15 15 15 15 15 15 15 16 17 17 17
28 25 23 21 19 17 15 13 13 13 12 12 12 12 13 13 13 14 14 13 14 15 15 15 16 16 16 16 16 16 17 17
29 26 24 22 19 17 15 14 13 12 12 12 12 12 12 13 13 13 13 13 14 14 15 16 16 16 16 16 16 16 16 16
29 27 25 23 20 18 15 14 13 12 12 12 12 12 12 13 13 13 13 13 13 14 15 16 16 16 16 16 15 15 15 15
29 28 25 23 21 18 15 15 14 13 12 13 13 12 13 13 13 13 13 14 14 15 15 15 16 16 16 16 16 15 15 15
29 28 26 23 21 19 16 15 15 13 13 13 13 13 13 14 13 13 14 14 15 16 17 16 16 16 16 16 15 16 16 16
29 28 26 24 22 20 18 16 15 14 14 13 13 14 14 14 14 14 15 15 16 17 17 16 15 16 16 16 16 16 16 16
29 28 27 25 22 21 19 18 17 17 14 14 14 14 15 15 15 15 15 15 16 16 17 16 16 16 16 16 16 16 16 16
30 29 28 25 23 22 20 18 18 19 17 16 15 15 15 15 16 16 15 16 16 16 16 16 16 16 16 16 16 16 16 16
28 28 27 26 24 22 21 19 19 19 19 18 17 16 16 16 16 16 16 16 16 16 17 17 16 16 17 16 16 16 16 16
28 27 27 26 25 23 22 20 20 20 19 19 18 18 17 17 16 16 16 16 16 16 16 17 16 17 17 17 17 17 16 16
28 27 27 27 25 24 23 22 21 20 20 19 19 18 18 17 17 17 16 16 16 16 16 17 17 17 17 16 17 16 16 15
28 27 27 26 26 24 24 23 21 20 20 19 19 18 18 18 17 17 17 16 16 16 17 17 17 17 16 16 15 15 14 13
27 27 27 27 26 25 24 23 22 21 20 20 19 18 18 18 17 17 17 16 16 16 16 16 16 16 15 14 14 13 12 11
25 26 25 26 26 25 24 23 23 21 21 20 20 19 19 18 18 18 18 17 16 15 15 14 13 12 12 13 12 10 8 6

GFSFLT1_925_temp_090.txt.gz
Temp
28 27 25 23 21 15 15 13 13 13 13 12 12 12 12 12 12 12 12 12 13 13 14 15 15 15 16 16 17 17 17 17
28 26 23 22 18 15 14 13 13 13 12 12 11 11 11 11 11 11 11 12 13 13 12 13 14 15 15 16 16 17 17 17
27 25 22 22 18 14 13 13 13 13 12 12 11 11 10 11 11 10 11 12 12 12 12 13 14 14 15 16 16 17 17 17
27 24 22 21 17 14 13 13 13 13 12 11 11 11 10 10 10 10 10 12 12 12 12 13 14 15 14 15 16 16 16 17
27 25 21 20 19 14 14 13 13 12 12 11 11 11 11 11 11 11 12 12 12 12 13 13 14 14 15 15 16 16 16 16
27 25 22 20 19 16 14 13 13 13 12 12 12 12 12 11 11 13 13 13 13 14 14 15 15 15 15 15 15 16 16 16
28 26 23 21 19 17 14 13 13 13 12 12 12 12 12 11 12 12 13 13 13 14 15 15 15 15 15 15 16 16 16 16
28 26 24 22 20 17 15 14 13 13 12 12 12 12 12 12 12 13 13 13 13 14 14 15 15 15 16 16 16 15 16 16
28 26 24 23 20 18 16 15 14 13 13 12 12 12 12 12 13 13 14 14 14 14 15 15 15 15 16 16 16 16 15 16
29 27 25 23 21 19 16 15 14 13 13 13 12 12 12 13 13 13 13 13 13 14 15 15 15 15 15 16 15 15 15 15
28 28 25 24 22 19 16 15 15 14 13 13 13 12 12 13 13 13 13 13 13 14 15 15 16 15 15 15 15 15 15 15
28 28 25 24 22 19 17 16 15 14 14 13 13 13 13 13 13 13 13 13 14 14 15 15 15 15 16 16 15 15 15 15
29 28 25 25 22 20 18 17 16 15 14 14 14 14 14 13 13 13 13 13 14 14 15 15 16 16 16 16 15 15 15 16
29 28 27 25 23 22 20 18 18 17 15 15 14 14 15 14 14 14 14 14 14 14 15 16 16 16 16 16 15 15 16 16
28 28 27 26 24 22 21 19 19 18 17 15 15 15 15 15 15 15 15 14 15 15 15 16 16 16 16 16 16 16 16 16
27 27 27 26 25 23 22 20 19 19 19 17 16 15 15 15 15 15 16 16 15 15 16 16 16 16 16 16 16 16 16 16
28 28 27 27 26 24 23 21 19 19 19 19 18 17 16 16 16 16 16 16 16 16 16 16 16 16 16 16 16 17 16 16
26 25 26 27 26 26 24 23 21 20 20 20 19 19 18 17 17 17 16 16 16 16 16 16 16 16 16 16 17 16 15 15
24 23 22 23 24 26 25 24 22 21 20 20 20 19 18 18 18 17 17 16 16 15 16 16 16 15 15 15 15 14 11 9

GFSFLT1_925_temp_096.txt.gz
Temp
20 19 17 16 16 16 15 15 15 15 15 14 14 14 14 14 14 14 14 14 14 14 13 14 15 15 14 15 16 16 16 16
20 18 16 15 14 15 15 14 14 14 14 13 12 13 13 14 14 14 14 14 14 13 14 14 14 14 15 15 16 16 16 16
19 16 14 14 13 13 14 14 14 14 14 14 12 12 12 13 13 14 14 14 13 13 13 13 14 14 15 15 15 15 15 16
19 15 13 13 13 13 13 14 14 14 12 13 12 11 11 11 12 13 13 14 14 13 13 13 14 14 15 15 15 16 15 16
19 16 13 13 12 13 14 13 13 12 12 12 12 11 10 10 11 11 12 13 13 13 12 12 13 14 14 16 16 16 15 15
19 16 14 13 12 12 13 13 12 12 12 13 11 11 11 10 10 10 11 11 12 12 12 13 14 15 16 16 16 17 16 15
20 18 14 13 12 12 13 12 12 12 12 12 11 11 10 10 10 10 10 10 10 10 10 12 14 15 15 16 16 16 16 16
19 16 13 13 12 12 12 12 12 12 12 12 11 11 11 10 10 10 10 10 11 11 12 12 13 14 15 14 15 15 16 16
19 17 14 13 13 12 12 12 12 12 12 11 11 11 11 10 10 10 11 11 11 12 12 12 12 13 13 13 14 16 16 16
19 18 15 14 13 13 13 12 12 12 12 11 11 11 11 11 11 11 11 11 11 11 11 11 11 12 13 15 15 15 15 16
19 18 16 15 14 13 13 13 12 12 12 11 11 11 11 11 11 12 12 12 12 12 12 12 12 12 12 12 13 14 14 15
19 19 18 16 14 13 13 13 12 12 12 12 12 11 11 11 11 12 12 12 12 12 12 12 11 11 12 13 14 14 14 15
20 19 18 16 14 13 13 13 13 12 12 12 12 12 12 11 12 12 12 12 13 13 13 13 13 13 14 14 14 14 15 13
19 20 18 16 15 14 14 13 13 13 13 13 12 12 12 12 12 12 12 12 13 13 13 13 13 14 14 14 14 14 14 14
19 20 19 17 15 15 14 14 13 13 13 13 13 12 12 12 12 12 12 12 12 13 12 12 13 13 14 14 14 14 14 15
20 18 19 17 16 15 14 14 13 13 13 13 14 13 12 12 12 12 12 12 12 12 12 12 13 13 13 13 13 14 14 14
18 19 18 18 17 16 15 14 14 13 13 14 14 13 13 13 12 12 12 12 12 12 11 12 12 12 13 13 13 13 14 14
15 14 14 14 14 17 16 15 14 13 13 13 13 13 13 13 13 12 12 12 12 11 11 11 12 12 13 13 14 14 14 14
11 10 11 9 10 12 15 17 15 14 14 13 13 13 13 13 13 13 13 12 12 12 12 12 12 12 13 13 13 14 13 13

GFSFLT1_925_temp_102.txt.gz
Temp
20 21 23 21 19 17 18 16 17 17 16 15 15 15 14 15 15 15 14 14 14 14 14 13 13 12 12 12 12 13 14 13
20 20 21 19 17 15 16 15 16 16 14 14 14 14 14 15 15 15 15 14 14 14 13 12 11 11 12 12 12 13 12 12
17 16 16 16 14 14 13 14 15 15 13 13 13 13 13 14 16 15 14 14 14 14 13 12 13 12 12 12 12 11 11 12
17 15 13 14 13 13 13 13 14 13 13 13 12 12 12 13 13 14 14 14 13 13 13 12 12 12 12 12 12 13 12 12
16 16 12 13 13 13 13 13 13 12 13 12 12 12 12 12 12 13 13 14 13 13 13 12 11 12 11 12 13 13 12 12
17 16 15 14 14 13 12 13 12 13 13 12 12 11 12 11 11 12 13 13 13 13 13 12 12 11 11 12 12 13 13 13
17 18 15 13 13 12 13 12 12 12 12 12 11 11 11 11 11 11 12 13 13 13 12 12 12 11 12 13 13 13 13 14
16 17 13 13 13 12 13 12 11 11 11 11 12 12 13 12 10 11 11 11 12 12 12 11 11 11 12 13 13 14 14 14
16 17 16 13 13 12 13 12 12 11 11 11 11 12 11 11 11 10 11 11 11 12 12 12 10 10 11 12 13 14 14 15
16 17 17 14 13 13 13 13 12 11 12 10 11 11 11 11 11 10 11 11 11 11 12 11 10 10 10 10 11 11 14 14
15 17 15 15 14 13 13 13 12 11 11 10 11 11 11 11 11 10 11 11 11 11 11 10 10 10 10 10 10 11 13 12
15 17 16 14 14 13 12 13 12 12 11 10 10 11 11 11 11 10 11 11 10 10 10 10 10 10 10 10 11 12 11 11
15 15 15 14 13 13 12 13 12 12 11 10 10 11 11 11 10 10 11 11 11 10 11 10 10 10 10 11 11 11 11 11
14 13 15 14 14 13 13 13 12 12 12 11 10 10 10 10 10 10 11 11 12 11 11 11 10 10 10 10 10 10 10 11
13 12 15 14 14 13 13 12 12 12 12 11 10 10 10 10 10 11 11 11 11 11 11 11 11 11 11 10 10 10 11 11
11 11 10 13 13 13 12 12 12 12 12 11 11 10 10 10 10 11 11 11 11 12 11 11 11 10 10 10 10 10 11 11
10 9 9 9 9 12 12 12 12 12 12 12 11 11 10 10 11 11 11 11 11 11 11 11 11 11 11 11 11 11 11 11
8 8 7 7 8 7 11 12 12 12 12 12 12 12 11 11 11 11 11 11 11 11 11 11 11 11 11 12 11 11 11 11
7 6 5 5 6 6 7 11 12 12 12 12 12 12 12 12 11 11 11 11 11 11 11 11 11 11 12 12 12 11 11 11

GFSFLT1_925_temp_105.txt.gz
Temp
23 21 22 22 21 19 17 16 16 15 15 15 15 15 15 15 14 14 14 14 14 13 13 14 13 13 12 12 12 12 12 12
21 20 20 20 20 17 16 15 15 14 14 15 14 14 14 14 14 14 14 14 14 14 13 14 13 13 12 11 11 12 11 12
22 20 19 18 18 16 15 15 14 14 14 14 14 14 14 14 14 14 14 14 14 14 14 13 13 12 12 12 11 11 11 11
20 20 19 18 16 15 15 15 13 14 14 14 13 13 13 13 13 13 14 14 14 14 14 12 12 11 11 11 11 12 11 11
19 19 19 18 16 15 14 14 13 14 13 13 13 14 14 13 13 14 14 14 14 13 13 12 11 11 11 11 11 12 12 11
18 18 19 18 16 15 14 13 13 13 13 13 13 13 13 12 12 13 13 13 14 13 13 12 11 11 12 12 12 12 13 12
18 18 18 18 15 15 14 12 13 12 13 12 12 12 13 13 12 11 12 13 13 13 13 12 12 11 11 11 11 11 12 12
18 18 18 18 17 15 14 13 13 12 12 12 12 12 12 12 11 11 11 12 12 13 12 12 12 11 12 11 11 11 12 13
18 18 17 17 18 15 14 13 13 12 12 11 12 12 12 12 12 11 11 12 12 12 12 12 11 11 10 10 11 12 12 13
17 18 17 17 17 15 14 13 13 12 11 11 11 12 12 13 11 11 11 11 11 12 12 12 11 10 10 10 11 12 12 12
17 17 18 16 16 15 13 13 12 12 11 12 11 11 12 12 11 10 11 11 11 11 12 12 11 11 10 10 11 11 11 11
16 17 16 14 14 15 14 13 13 12 11 11 11 11 11 11 11 11 11 11 11 11 11 11 11 10 10 10 10 10 11 11
14 14 13 14 15 14 13 13 13 12 11 11 10 10 11 11 11 11 11 11 10 10 11 11 10 10 10 9 9 9 10 10
12 12 11 13 14 13 13 12 12 11 11 10 10 10 10 11 10 10 11 11 11 10 10 10 10 10 10 10 10 10 10 11
11 10 10 10 13 13 13 12 12 11 11 10 10 10 10 10 10 10 10 10 10 10 11 10 10 10 10 10 10 10 10 10
10 9 8 8 9 12 12 12 12 12 11 11 10 10 10 10 10 10 10 10 11 11 10 10 10 10 10 10 10 10 10 10
8 7 6 6 6 8 12 12 12 12 11 11 11 10 10 10 10 10 10 10 11 10 10 10 10 10 10 10 10 10 10 10
6 6 5 4 5 6 8 11 12 12 11 11 11 11 10 10 10 10 10 11 11 11 10 10 10 10 11 11 11 11 10 10
5 4 3 2 3 4 5 10 12 12 12 12 11 11 11 11 11 11 11 11 10 10 10 11 10 11 11 11 11 11 11 11

GFSFLT1_925_temp_111.txt.gz
Temp
30 30 30 30 29 29 28 27 25 23 22 22 22 20 20 19 19 17 17 16 16 17 17 17 16 15 14 14 14 14 14 13
30 30 28 28 27 27 27 26 26 24 22 22 22 18 18 18 20 19 19 17 16 16 16 16 15 14 14 14 13 13 13 13
30 29 27 26 26 26 26 26 25 24 23 23 20 17 16 16 18 19 19 17 17 16 16 15 15 14 13 13 13 12 12 13
30 28 26 26 25 25 25 25 25 24 23 21 17 17 16 16 16 17 17 17 16 16 15 14 14 14 13 13 12 12 12 12
29 27 27 26 25 24 23 24 24 24 23 21 17 17 17 17 16 17 17 17 16 16 15 14 14 13 13 12 12 12 12 13
27 26 26 26 25 24 23 22 23 23 23 21 17 17 18 19 18 18 16 16 15 15 14 14 14 13 13 12 12 12 11 12
26 26 25 25 25 23 22 22 22 22 22 21 18 17 19 21 20 19 17 15 15 14 14 14 13 13 13 12 12 12 11 11
25 25 25 25 24 23 22 22 22 21 20 19 17 17 19 21 21 19 17 16 15 14 14 13 13 13 13 12 12 11 11 11
25 25 24 23 23 22 21 21 22 21 20 17 16 16 18 20 20 19 17 16 16 14 13 13 13 12 12 12 11 11 11 11
24 23 22 20 20 19 20 18 20 21 20 16 16 15 17 19 20 19 18 17 16 14 13 13 12 12 12 12 11 11 11 11
22 22 20 18 18 17 17 16 18 20 19 15 15 15 17 18 19 18 18 16 16 14 13 13 12 12 11 11 11 11 11 11
22 21 19 17 16 15 14 13 17 20 17 15 14 14 16 17 18 17 16 15 15 15 13 12 12 12 11 11 11 11 11 11
19 19 18 17 15 13 12 9 14 17 15 14 13 13 15 17 17 15 15 15 15 15 15 12 12 11 11 11 11 11 11 11
17 17 16 15 14 11 9 7 7 14 14 12 12 13 14 16 15 14 14 15 14 14 14 13 11 11 11 11 10 10 10 11
14 14 13 13 12 9 6 6 7 13 13 13 13 13 15 15 14 14 13 15 14 14 13 12 11 11 11 11 10 10 10 10
12 11 10 10 9 7 5 5 6 12 12 12 12 13 13 14 13 14 13 14 14 13 12 12 12 11 11 10 10 10 10 10
9 9 8 8 6 4 3 3 4 7 12 11 11 12 13 14 13 13 13 13 14 13 12 12 12 12 11 11 10 10 10 10
6 5 5 4 3 2 2 2 2 8 11 11 11 11 12 13 13 13 13 13 12 13 14 13 12 13 11 10 10 10 10 9
4 3 2 2 1 1 1 1 2 8 9 10 11 11 12 12 13 13 13 13 13 12 12 12 12 12 11 11 10 10 10 10

GFSFLT1_925_temp_114.txt.gz
Temp
30 30 31 31 31 31 30 28 25 23 22 22 22 21 21 21 21 20 19 18 17 18 18 18 18 17 16 16 15 15 15 15
31 30 30 30 29 28 28 28 26 24 23 22 22 22 21 21 20 20 18 17 17 17 17 17 18 17 16 16 14 14 14 14
30 30 28 28 28 27 27 27 26 25 23 22 22 22 21 20 20 20 19 17 17 16 16 17 17 16 15 14 14 13 13 13
29 29 27 27 26 26 26 26 26 26 25 24 23 20 18 18 18 19 19 19 18 17 16 17 17 16 15 14 13 13 13 13
29 28 25 26 26 25 24 24 24 25 25 24 21 18 17 17 17 17 18 18 18 17 17 16 15 15 14 14 14 13 13 13
28 27 27 26 26 25 24 23 23 23 24 24 20 18 19 18 16 16 17 18 17 17 16 15 14 14 14 14 13 13 12 13
25 26 26 26 26 24 23 23 23 23 23 23 21 18 18 18 17 16 16 17 17 17 16 16 14 14 14 13 13 12 12 12
24 25 25 24 23 23 22 22 21 22 22 22 22 19 17 18 19 18 17 16 16 16 15 14 14 14 14 13 13 12 12 12
24 24 22 21 20 19 18 18 18 20 19 21 21 20 17 18 18 20 17 16 15 15 14 14 14 13 13 13 12 12 12 11
23 22 21 19 18 18 16 16 16 18 17 18 20 19 17 17 18 19 18 17 16 15 14 14 13 13 13 13 12 12 12 11
22 20 19 19 18 16 15 14 14 14 13 15 18 17 17 16 17 18 18 18 17 15 14 13 13 13 13 12 12 12 11 11
19 19 18 17 16 15 14 12 11 10 11 13 17 16 16 16 16 18 18 17 17 14 13 13 13 13 12 12 12 12 11 11
17 17 16 15 15 14 12 10 9 8 8 14 16 15 16 15 16 17 17 16 16 15 14 13 13 12 12 12 12 11 11 11
15 15 14 13 12 12 10 9 7 6 7 11 14 14 15 14 15 16 16 16 15 15 14 13 12 12 12 11 11 11 11 11
13 12 11 10 9 8 7 6 6 5 6 10 13 13 13 14 14 15 15 16 15 15 14 13 12 11 12 11 11 11 11 11
11 10 8 8 7 5 5 4 4 3 4 8 12 13 13 13 13 14 15 14 15 14 13 13 12 11 11 11 11 11 10 10
8 7 6 5 4 3 3 3 2 3 4 8 12 12 13 13 13 14 14 14 14 13 13 13 12 11 11 11 11 10 10 10
5 4 3 3 2 1 2 2 2 2 5 10 12 12 12 12 13 13 13 13 13 13 12 12 12 12 11 11 10 10 10 10
3 3 1 1 0 -0 0 1 1 1 1 3 9 12 12 12 12 12 12 13 13 13 13 13 12 12 11 10 10 10 10 10

GFSFLT1_925_temp_117.txt.gz
Temp
27 29 29 30 30 30 28 25 25 24 23 22 22 23 22 21 21 20 20 20 19 19 18 18 18 18 17 17 16 16 15 15
27 28 29 29 29 28 27 23 22 22 22 22 22 22 22 22 21 21 19 19 19 19 18 19 18 18 17 16 15 16 15 14
27 27 27 28 26 26 26 24 23 22 22 22 21 22 22 21 21 21 20 19 18 18 18 18 17 17 17 16 16 15 14 15
25 23 22 25 25 26 25 25 23 23 23 23 21 21 21 20 20 20 19 19 19 18 18 17 17 17 17 16 15 14 13 14
25 22 20 23 25 25 24 24 24 23 22 22 22 21 19 20 19 20 19 18 18 19 18 17 17 16 17 17 15 14 13 13
23 22 22 25 24 23 23 23 23 23 23 22 21 21 21 20 18 18 19 19 18 17 17 17 16 16 16 17 16 13 13 13
23 22 20 18 18 18 18 19 19 20 20 21 21 20 20 18 17 17 17 18 18 17 17 17 16 16 15 14 14 13 13 13
20 19 17 17 16 16 16 16 16 18 18 18 18 19 20 18 18 16 16 17 17 16 16 16 16 15 14 13 14 13 13 13
18 17 16 16 15 15 15 15 14 14 15 15 16 17 17 18 18 17 16 16 16 17 16 15 15 15 14 13 13 13 13 12
17 17 16 15 15 14 14 13 13 12 12 12 13 13 15 17 18 18 18 16 16 17 16 15 15 15 14 13 13 13 13 12
16 15 15 14 14 13 12 11 10 10 9 8 9 10 13 16 18 19 18 17 15 15 16 15 14 14 14 13 13 13 12 12
14 13 13 12 11 11 10 9 8 8 7 7 7 10 12 14 18 18 17 16 15 16 16 15 14 13 13 14 12 12 12 12
12 11 10 9 9 9 7 6 6 5 5 5 6 9 13 15 17 17 17 16 16 16 16 14 13 13 13 13 12 12 12 11
10 9 8 8 7 6 5 5 4 4 4 4 5 8 13 15 16 16 16 16 15 16 15 14 13 13 12 12 12 12 11 11
8 7 6 5 5 4 3 3 3 3 3 3 4 7 12 15 15 15 15 15 15 15 15 15 13 12 12 12 12 12 11 11
6 5 5 4 3 2 2 2 2 2 2 3 4 6 11 13 14 14 14 14 15 15 15 13 13 12 12 12 11 11 11 11
5 4 4 2 1 1 1 1 1 1 2 2 3 7 11 12 13 14 13 14 15 14 14 13 12 12 12 11 11 11 11 11
3 3 2 1 0 -0 -0 0 0 0 1 1 2 3 12 12 13 13 13 13 14 14 13 12 12 12 12 11 11 11 11 10
2 1 0 -1 -1 -1 -1 -0 -0 -1 -0 -0 1 1 5 12 12 12 12 13 13 13 12 12 12 12 11 11 10 10 10 10

GFSFLT1_925_temp_123.txt.gz
Temp
23 24 25 26 24 23 23 22 22 22 20 19 19 19 19 20 20 20 20 20 19 19 18 18 18 18 18 17 17 16 16 15
23 27 26 26 26 24 23 21 22 20 19 18 18 18 19 19 20 20 20 20 20 19 19 18 18 18 17 17 16 16 15 15
21 23 26 26 23 25 23 23 22 20 19 19 19 18 18 19 20 20 20 20 20 19 19 18 18 18 17 17 17 15 15 15
22 22 22 24 23 22 23 23 22 21 19 19 19 18 19 18 18 19 19 19 19 19 19 19 18 19 18 18 16 15 15 14
20 17 16 15 15 18 18 19 19 18 19 18 19 18 18 20 21 21 21 20 19 19 19 19 19 18 18 18 17 16 15 14
14 14 14 13 13 13 15 16 16 17 18 18 17 17 17 17 19 19 20 20 19 19 19 19 19 19 18 18 17 15 15 15
14 14 13 12 12 12 13 13 13 15 16 16 16 17 16 16 16 17 18 18 18 19 19 19 20 19 18 17 18 17 15 15
13 11 11 10 10 10 10 10 10 11 13 14 15 15 15 16 16 15 16 16 17 17 17 18 18 19 18 17 17 17 15 14
10 10 10 9 8 8 8 8 8 9 11 12 12 13 13 14 14 14 14 15 16 18 19 18 18 18 17 16 16 16 15 15
9 9 8 7 7 6 6 6 6 6 7 9 11 12 12 12 13 13 13 14 15 16 17 17 19 19 18 16 15 15 14 14
8 8 6 6 5 5 5 4 4 4 5 5 5 6 8 8 9 10 11 13 13 14 15 16 16 17 16 15 14 15 14 13
6 6 5 4 4 3 3 3 3 3 3 3 4 4 5 5 7 8 9 11 12 13 14 16 16 14 14 14 14 14 14 13
5 5 4 4 3 2 2 1 1 2 3 3 4 4 4 5 5 7 8 10 12 12 14 15 15 14 14 14 14 13 13 13
4 4 3 3 2 1 1 1 1 1 1 1 2 2 2 3 4 5 8 10 12 13 14 14 14 14 14 14 13 13 13 13
4 3 2 2 1 1 0 1 0 -0 0 0 1 1 1 1 3 4 6 9 11 13 14 14 15 14 14 13 13 13 13 12
3 2 2 1 0 0 -0 0 -0 -1 -1 -1 -0 0 0 1 2 3 6 8 11 13 14 14 14 14 13 13 13 13 12 12
2 2 1 0 -0 -1 -1 -1 -1 -1 -1 -1 -1 -1 -0 0 1 2 4 7 11 13 13 13 13 13 13 13 13 12 12 12
1 1 -0 -1 -2 -2 -2 -1 -1 -1 -1 -2 -2 -2 -1 -1 0 2 3 6 10 12 13 13 13 13 13 13 12 12 12 12
0 -1 -2 -2 -3 -3 -2 -2 -2 -2 -2 -3 -3 -3 -2 -1 -0 1 2 4 8 13 13 13 12 12 13 13 12 11 11 11